{"data":{"norad_id":62321,"epoch":"2026-09-21T11:12:15.946272Z","epoch_age_seconds":93907,"freshness":"FRESH","line1":"1 62321U 24239W   26264.46685123  .00021148  00000+0  63529-3 0  9992","line2":"2 62321  53.1600 349.2655 0001030 139.7635 220.3444 15.34399413 99574","mean_motion":15.34399413,"eccentricity":0.000103,"inclination_deg":53.16,"raan_deg":349.2655,"arg_perigee_deg":139.7635,"mean_anomaly_deg":220.3444,"bstar":0.00063529,"rev_number":9957,"period_min":93.847793983743,"perigee_km":462.00037817092,"apogee_km":463.40959161981,"semimajor_km":6840.8419848954,"source":"CELESTRAK","updated_at":"2026-09-22T09:00:49.574878Z"}}